TimeCST,TemperatureF,Dew PointF,Humidity,Sea Level PressureIn,VisibilityMPH,Wind Direction,Wind SpeedMPH,Gust SpeedMPH,PrecipitationIn,Events,Conditions,WindDirDegrees,DateUTC
12:15 AM,32.0,26.6,80,29.98,10.0,West,5.8,-,N/A,,Mostly Cloudy,270,2011-11-11 06:15:00
12:35 AM,32.0,26.6,80,29.98,10.0,West,6.9,-,N/A,,Overcast,270,2011-11-11 06:35:00
12:55 AM,32.0,26.6,80,29.98,10.0,West,6.9,-,N/A,,Overcast,260,2011-11-11 06:55:00
1:15 AM,32.0,26.6,80,29.97,10.0,West,5.8,-,N/A,,Scattered Clouds,260,2011-11-11 07:15:00
1:35 AM,30.2,26.6,86,29.98,10.0,WSW,5.8,-,N/A,,Scattered Clouds,250,2011-11-11 07:35:00
1:55 AM,30.2,26.6,86,29.98,10.0,West,4.6,-,N/A,,Clear,260,2011-11-11 07:55:00
2:15 AM,30.2,24.8,80,29.98,10.0,WSW,4.6,-,N/A,,Clear,240,2011-11-11 08:15:00
2:35 AM,30.2,26.6,86,29.98,10.0,WSW,6.9,-,N/A,,Clear,250,2011-11-11 08:35:00
2:55 AM,30.2,24.8,80,29.98,10.0,West,5.8,-,N/A,,Clear,260,2011-11-11 08:55:00
3:15 AM,28.4,24.8,86,29.97,10.0,WSW,5.8,-,N/A,,Clear,250,2011-11-11 09:15:00
3:35 AM,28.4,24.8,86,29.97,10.0,West,5.8,-,N/A,,Clear,260,2011-11-11 09:35:00
3:55 AM,28.4,23.0,80,29.97,10.0,West,5.8,-,N/A,,Clear,260,2011-11-11 09:55:00
4:35 AM,28.4,23.0,80,29.96,10.0,West,4.6,-,N/A,,Clear,260,2011-11-11 10:35:00
6:45 AM,26.6,23.0,86,29.95,10.0,Calm,Calm,-,N/A,,Clear,0,2011-11-11 12:45:00
7:45 AM,26.6,24.8,93,29.96,10.0,SSW,4.6,-,N/A,,Clear,210,2011-11-11 13:45:00
9:45 AM,33.8,24.8,70,29.95,10.0,SSW,5.8,-,N/A,,Clear,200,2011-11-11 15:45:00
10:45 AM,33.8,26.6,75,29.93,10.0,SSW,11.5,-,N/A,,Scattered Clouds,200,2011-11-11 16:45:00
11:45 AM,37.4,26.6,65,29.90,10.0,SSW,11.5,-,N/A,,Mostly Cloudy,210,2011-11-11 17:45:00
12:45 PM,39.2,24.8,56,29.86,10.0,SSW,11.5,23.0,N/A,,Scattered Clouds,210,2011-11-11 18:45:00
1:45 PM,39.2,23.0,52,29.82,10.0,SSW,11.5,23.0,N/A,,Scattered Clouds,210,2011-11-11 19:45:00
2:45 PM,39.2,23.0,52,29.80,10.0,South,11.5,-,N/A,,Scattered Clouds,180,2011-11-11 20:45:00
3:45 PM,39.2,21.2,49,29.78,10.0,South,13.8,-,N/A,,Clear,180,2011-11-11 21:45:00
4:45 PM,37.4,23.0,56,29.76,10.0,South,9.2,-,N/A,,Clear,180,2011-11-11 22:45:00
5:45 PM,35.6,24.8,65,29.77,10.0,South,5.8,-,N/A,,Clear,190,2011-11-11 23:45:00
6:45 PM,35.6,26.6,70,29.75,10.0,South,4.6,-,N/A,,Clear,190,2011-11-12 00:45:00
7:45 PM,35.6,26.6,70,29.73,10.0,South,5.8,-,N/A,,Clear,190,2011-11-12 01:45:00
8:15 PM,33.8,28.4,81,29.73,10.0,South,4.6,-,N/A,,Clear,190,2011-11-12 02:15:00
8:35 PM,33.8,28.4,81,29.73,10.0,South,6.9,-,N/A,,Clear,190,2011-11-12 02:35:00
8:45 PM,33.8,28.4,81,29.73,10.0,South,6.9,-,N/A,,Clear,190,2011-11-12 02:45:00
8:55 PM,33.8,28.4,81,29.73,10.0,South,6.9,-,N/A,,Clear,190,2011-11-12 02:55:00
9:15 PM,33.8,28.4,81,29.73,10.0,SSW,4.6,-,N/A,,Clear,210,2011-11-12 03:15:00
9:35 PM,33.8,28.4,81,29.72,10.0,South,4.6,-,N/A,,Clear,180,2011-11-12 03:35:00
9:55 PM,33.8,30.2,87,29.72,10.0,SSW,5.8,-,N/A,,Clear,210,2011-11-12 03:55:00
10:15 PM,33.8,30.2,87,29.71,10.0,SSW,6.9,-,N/A,,Clear,210,2011-11-12 04:15:00
10:35 PM,33.8,30.2,87,29.71,10.0,SW,6.9,-,N/A,,Clear,220,2011-11-12 04:35:00
10:55 PM,33.8,30.2,87,29.71,10.0,SSW,8.1,-,N/A,,Clear,210,2011-11-12 04:55:00
11:15 PM,33.8,30.2,87,29.71,10.0,SSW,6.9,-,N/A,,Clear,210,2011-11-12 05:15:00
11:35 PM,33.8,30.2,87,29.70,10.0,SSW,6.9,-,N/A,,Clear,200,2011-11-12 05:35:00
11:55 PM,33.8,30.2,87,29.70,10.0,SSW,6.9,-,N/A,,Clear,210,2011-11-12 05:55:00